Weather in Maraza

Azerbaijan     40°31′55″N   48°55′33″E
В апреле 2022 года жителям России запретили посещать сайт meteo.paraplan.net по решению Генеральной прокуратуры. Аудитория сайта уменьшилась в 10 раз. Владельцы сайта не видят смысла в поддержке погодного сервера в таких условиях. Сайт будет закрыт в октябре.
temp.,
°C
wind,
m/s
gust,
m/s
humid.,
%
clouds,
%
prec.,
mm/h
press.,
hPa
HPBL,
m
29 september, thu
thu2901:00+19wnw225661 0.0 100712
04:00+18ne22405 0.0 100811
07:00+17nne2244100 0.0 100911
10:00+24wsw23285 0.0 1010466
13:00+27wsw43320 0.0 10101210
16:00+28sw22294 0.0 10091608
19:00+24n35415 0.0 1011206
22:00+21nnw225355 0.0 101365
30 september, fri
fri3001:00+19wnw22604 0.0 101535
04:00+17nw22621 0.0 101619
07:00+17nnw33550 0.0 101720
10:00+24nne46300 0.0 1018937
13:00+27ne54230 0.0 10171856
16:00+25ene76280 0.0 1017918
19:00+21ene48370 0.0 1018319
22:00+19ne34450 0.0 1020100
1 october, sat
sat101:00+19nne22400 0.0 102027
04:00+18nne22350 0.0 102015
07:00+17nne22330 0.0 102111
10:00+23ene12203 0.0 1021607
13:00+25e42183 0.0 10201473
16:00+25e54233 0.0 10191211
19:00+20e34515 0.0 1020285
22:00+18ene22625 0.0 102163
2 october, sun
sun201:00+17ne11655 0.0 102012
04:00+16nnw11625 0.0 102011
07:00+16ne11325 0.0 102011
10:00+21se22285 0.0 1020576
13:00+24sse54290 0.0 10171380
16:00+23sse653556 0.0 10151245
19:00+18sse45545 0.0 1016413
22:00+16sse126820 0.0 1016222
3 october, mon
mon301:00+15wnw017232 0.0 101511
04:00+14w117119 0.0 101311
07:00+14wsw237583 0.0 101352
10:00+19ssw785419 0.0 1012998
13:00+22ssw894410 0.0 10101393
16:00+23s894622 0.0 10091467
19:00+18s576925 0.0 1011495
22:00+16s12805 0.0 1013165